Regional Weather Roundup
Issued by NWS

Home | Current Version | Previous Version | Graphics & Text | Print | Product List | Glossary On
Versions: 1 2 3 4 5 6 7 8 9 10 11 12 13 14 15 16 17 18 19 20 21 22 23 24 25 26 27 28 29 30 31 32 33 34 35 36 37 38 39 40 41 42 43 44 45 46 47 48 49 50
000
ASUS43 KLMK 160810
RWRKY
KENTUCKY REGIONAL WEATHER ROUNDUP
NATIONAL WEATHER SERVICE LOUISVILLE KY
400 AM EDT MON OCT 16 2017

NOTE "FAIR" INDICATES FEW OR NO CLOUDS BELOW 12,000 FEET
WITH NO SIGNIFICANT WEATHER AND/OR OBSTRUCTIONS TO VISIBILITY.

KYZ001>023-026-027-061>063-070>075-160900-
WESTERN AND SOUTH CENTRAL KENTUCKY

CITY           SKY/WX    TMP DP  RH WIND       PRES   REMARKS
PADUCAH        CLEAR     48  41  76 N7        30.31S
HENDERSON      CLEAR     47  43  86 NW5       30.30S
OWENSBORO      NOT AVBL
HOPKINSVILLE   CLEAR     48  43  83 N6        30.27S
BOWLING GREEN  CLOUDY    54  44  69 N3        30.26S
GLASGOW        CLOUDY    49  44  83 CALM      30.25F
$$

KYZ024-025-028>034-038-045-046-053-160900-
NORTH CENTRAL KENTUCKY

CITY           SKY/WX    TMP DP  RH WIND       PRES   REMARKS
LOUISVILLE/SDF MOCLDY    53  44  71 NW9       30.25S
LOUISVILLE/LOU MOCLDY    52  45  77 N3        30.26S
FORT KNOX      CLOUDY    49  43  79 NW6       30.24S HAZE
$$

KYZ035>037-039>044-047>052-055>060-089>105-160900-
NORTHEAST KENTUCKY

CITY           SKY/WX    TMP DP  RH WIND       PRES   REMARKS
LEXINGTON      CLOUDY    51  44  77 NW8       30.23S
COVINGTON      PTCLDY    49  46  90 NW8       30.23R
FRANKFORT      CLOUDY    51  43  74 NW8       30.23R
$$

KYZ054-064>069-076>088-106>120-160900-
SOUTHEAST KENTUCKY

CITY           SKY/WX    TMP DP  RH WIND       PRES   REMARKS
JACKSON        CLOUDY    50  44  80 W5        30.20R
LONDON         CLOUDY    51  44  77 NW3       30.21S
SOMERSET       CLOUDY    50  41  71 CALM      30.24F
MIDDLESBORO    CLOUDY    51  45  79 N3        30.21S
MONTICELLO     CLOUDY    52  43  71 N14G21    30.25S
$$





USA.gov is the U.S. government's official web portal to all federal, state and local government web resources and services.